Simultaneous Nadir Overpasses (SNOs) Predictions

Prediction of SNOs over PacNW region [( 10.00, 139.50) to ( 22.70, 165.60)] between AQUA and NPP Satellites:

Table of predicted SNOs over PacNW region for the next 30.0 days since TLE Epoch: 11/9/2019
Index Date (AQUA) Time (AQUA) AQUA Lat,Lon Date (NPP) Time (NPP) NPP Lat,Lon Distance(km) Time Diff (sec)
1 11/14/2019 15:59:11 22.61, 147.47 11/14/2019 16:01:54 23.26, 144.54 308.88 163
2 11/22/2019 15:09:44 22.59, 159.83 11/22/2019 15:11:06 23.20, 157.21 276.33 82
3 11/25/2019 03:31:33 22.66, 147.52 11/25/2019 03:28:04 25.23, 145.10 376.75 209
4 11/30/2019 15:59:09 22.58, 147.47 11/30/2019 16:01:46 23.22, 144.53 309.07 157




NCC Satellite Simultaneous Nadir Overpasses (SNOs) Prediction Service
